Starlink 3626

operational
NORAD ID: 51792 Int'l Des: 2022-017 Owner: SPXS Country: US Constellation: starlink
LEOCIRCULAR

关于 Starlink 3626

正在加载描述...

实时位置

正在加载3D地球...

即将过境

高度历史

Altitude vs Time

uPlot chart will show altitude changes over time

两行轨道根数

1 51792U 22017AA 25305.99003163 .00001084 00000-0 86177-4 0 9998
2 51792 53.2161 202.3861 0001424 82.7034 277.4120 15.08842782204690
Epoch: Nov 1, 2025 • Age: 33 hours

当前状态

高度 540.0 km
速度 7.59 km/s
星下点 4.64°N, 19.14°E
发射日期 Feb 25, 2022
运行时间 3.6 years
类型 internet

技术详情

分类 Payload
质量 297.00 kg
干质量 275.00 kg
总质量 297.00 kg
长度 0.20 m
直径 2.80 m
跨度 9.00 m
形状 Box + pan
制造商 SPXS
平台类型 Starlink
阶段状态 In Orbit
所有者/国家 SPXS/US

大型星座

Loading constellations...